Wind_Speed
11 11 10 7 6 5 6 7 7 6 5 5 5 5 4 4 4 4 5 6 6 7 7 8 9 10 12 14 15 15 16 16 15 15 15 15 15 15 16 16 16 16
11 11 11 10 8 6 6 7 8 7 6 6 5 5 4 4 3 3 3 4 5 5 6 7 8 10 11 12 13 14 15 15 15 15 14 14 14 14 15 15 15 16
13 12 12 12 11 9 7 8 9 8 7 6 5 5 4 4 3 2 2 2 3 4 5 6 7 8 10 11 12 13 14 14 14 14 14 14 14 14 15 15 15 15
13 13 13 13 13 12 10 10 10 9 8 7 6 5 5 4 4 3 2 1 2 2 3 4 6 7 8 9 11 12 13 14 15 15 15 15 14 15 15 14 14 15
14 14 14 14 14 14 14 12 12 11 10 8 7 6 6 6 5 4 3 2 1 0 1 2 3 4 6 7 9 10 12 13 14 15 15 15 15 15 15 15 15 15
14 14 15 15 15 15 16 15 14 13 12 10 9 8 8 7 6 5 4 3 2 2 1 0 1 2 4 5 7 9 10 12 13 14 15 15 15 15 15 15 15 15
14 14 15 15 15 16 17 17 17 16 15 14 12 11 10 9 8 7 6 5 4 3 3 2 2 2 3 4 5 7 9 10 11 12 13 14 15 15 15 15 15 16
14 15 15 15 15 16 17 18 19 19 18 17 15 14 13 12 11 9 7 6 5 5 4 4 4 4 4 4 5 6 8 9 10 11 12 13 14 14 14 15 15 15
17 17 17 16 15 16 16 17 19 20 21 20 19 18 16 15 14 12 10 8 7 6 6 6 6 6 6 6 6 7 7 9 10 10 11 12 13 14 14 14 14 15
20 19 17 15 15 16 17 17 17 19 21 22 22 21 20 19 17 15 13 12 10 9 9 8 8 9 8 8 8 8 9 9 10 11 11 12 13 13 14 14 14 14
22 18 15 14 16 20 22 21 19 18 20 22 23 24 23 22 21 19 17 15 14 13 12 11 11 11 11 11 11 11 11 11 12 12 12 12 13 13 13 13 13 13
23 20 20 21 24 29 31 28 23 20 19 20 22 24 25 25 24 22 21 20 18 17 16 15 15 15 14 14 14 14 14 14 14 14 14 13 13 13 14 13 13 13
26 23 23 26 29 32 33 31 27 23 20 20 21 24 26 27 27 26 25 24 23 22 21 20 19 18 17 16 16 16 17 17 17 16 16 15 14 14 14 14 13 12
25 25 27 29 28 30 31 31 30 26 21 21 22 23 25 26 28 29 29 28 28 26 25 25 24 22 20 19 18 18 18 19 19 18 17 16 15 15 14 14 13 12
24 26 29 29 28 29 30 32 33 29 25 24 23 23 25 26 27 29 30 31 31 30 29 28 27 25 23 22 20 20 19 20 20 19 17 17 16 15 14 14 12 11
27 26 28 29 29 29 31 33 33 29 27 28 26 25 26 26 27 28 29 30 31 31 30 30 28 27 26 25 23 22 21 21 20 19 18 18 17 15 15 14 12 11
30 29 31 32 31 31 31 33 33 31 31 31 30 30 29 28 27 27 28 29 31 31 31 30 29 29 28 28 26 25 24 23 22 20 19 18 17 16 15 14 12 10
35 34 36 35 33 32 32 33 34 35 35 35 34 34 32 30 28 27 27 28 29 30 30 30 30 29 30 30 29 28 27 25 24 22 20 19 17 16 14 13 12 11
40 40 41 38 35 33 32 34 37 38 37 37 37 35 33 31 29 27 28 28 27 28 29 29 29 29 29 30 30 29 28 27 26 24 21 20 18 16 14 13 12 11
45 45 47 44 38 34 30 29 35 41 41 39 38 37 34 33 31 29 29 29 28 27 28 29 29 28 28 29 29 28 28 27 26 25 23 21 19 17 14 13 12 12
48 48 49 46 41 38 33 29 33 40 43 42 41 39 37 35 33 31 31 31 30 28 28 28 28 27 27 27 27 27 27 27 27 25 24 22 20 18 16 14 13 12
52 52 52 48 45 44 42 39 39 42 44 45 44 41 38 37 36 34 33 33 32 32 31 29 27 25 24 23 23 25 26 27 27 25 24 23 22 20 18 16 14 13
54 56 57 57 56 54 51 49 48 45 44 45 45 42 39 38 37 36 35 35 35 36 35 32 29 26 23 22 22 23 26 28 28 26 24 23 22 21 20 18 16 15
58 59 61 62 63 61 58 55 52 49 47 46 46 44 42 41 41 39 38 38 39 39 39 37 34 30 27 28 27 26 26 27 27 25 23 22 21 21 20 20 18 17
62 64 65 65 64 64 62 60 57 55 54 52 51 50 47 45 45 44 42 42 43 44 43 40 38 37 37 36 34 30 27 26 25 24 22 20 18 18 18 19 19 18
66 68 69 70 70 69 68 67 64 62 59 57 56 56 54 51 49 48 46 45 46 47 45 41 41 42 42 41 38 34 29 26 25 26 25 22 19 17 17 19 20 19
Wind_Direction
246 235 225 216 204 200 193 184 184 181 169 154 142 133 123 114 104 90 79 69 61 53 46 40 36 33 33 34 34 34 36 36 35 36 35 34 30 29 30 28 26 26
254 244 232 226 217 208 201 196 196 197 191 181 169 155 138 125 117 107 92 80 70 61 52 46 39 35 33 32 31 31 32 32 32 33 34 33 31 30 32 30 28 28
258 252 241 233 226 215 206 202 204 207 205 202 197 182 160 145 136 127 111 89 76 63 54 49 42 36 32 31 30 28 28 27 26 27 29 31 29 28 29 29 27 28
257 254 248 241 233 221 211 207 208 212 216 218 214 202 191 178 166 153 146 126 84 64 50 46 43 35 29 28 27 25 25 23 21 20 22 24 23 22 23 23 23 24
259 252 249 246 240 228 217 211 210 214 222 233 234 226 216 204 192 183 175 178 176 87 42 36 33 29 24 21 20 21 20 20 19 17 16 16 17 16 16 16 17 18
269 254 248 248 247 239 228 218 213 215 221 232 242 246 242 229 214 205 197 196 204 219 240 306 351 355 3 5 7 10 12 14 14 13 12 11 11 11 9 9 10 12
272 261 254 249 247 246 239 227 218 217 221 228 236 245 252 252 244 231 220 213 214 225 239 248 267 290 317 333 345 353 359 4 5 6 6 5 5 5 4 4 5 7
274 271 266 258 252 248 245 237 228 222 222 227 233 239 246 255 260 256 247 238 233 232 242 251 259 268 283 300 316 330 342 348 351 355 357 358 358 359 358 359 1 3
276 276 275 269 261 255 249 244 238 232 229 229 234 238 241 248 256 261 263 262 258 253 254 259 264 269 275 284 296 307 321 330 335 339 344 347 351 352 351 354 356 358
275 277 276 275 271 264 259 254 249 243 239 236 237 240 242 245 250 255 262 267 269 271 273 274 276 278 279 281 286 294 304 313 320 324 329 335 341 344 345 347 351 353
267 263 254 252 251 245 244 248 251 249 247 246 244 244 245 247 249 253 258 262 266 272 279 285 288 287 287 286 286 289 294 301 308 313 318 323 330 336 338 341 346 349
246 238 226 227 231 231 232 236 239 241 244 248 249 248 247 248 250 253 256 258 261 267 274 282 288 290 292 292 290 289 290 294 300 305 310 315 321 328 332 335 342 345
236 234 231 233 235 236 237 237 235 236 238 241 246 248 248 249 249 250 253 256 258 262 267 273 278 283 286 289 291 290 288 289 293 299 306 310 315 322 326 330 337 342
236 236 235 236 237 240 243 242 238 237 239 242 246 250 251 250 250 249 250 252 255 258 262 265 269 273 275 277 281 284 285 285 287 293 299 304 310 315 319 324 331 336
232 233 234 236 239 240 243 244 240 238 244 249 252 256 257 254 252 251 250 251 253 256 258 261 264 266 267 268 269 273 276 278 281 285 291 297 304 310 313 317 323 330
228 234 238 241 241 239 239 242 241 242 249 252 252 257 260 258 256 255 254 255 256 258 260 261 263 264 265 266 266 266 269 271 274 278 282 289 296 304 307 310 316 321
225 231 238 242 244 242 241 242 243 245 249 250 252 254 255 257 258 256 256 257 258 259 262 263 264 266 266 267 267 267 267 267 269 272 275 281 289 297 303 306 309 313
225 229 237 241 243 243 242 242 244 246 248 250 253 254 254 256 258 258 257 256 256 259 261 261 261 261 263 265 267 267 267 266 267 269 273 277 282 291 299 302 305 306
228 230 234 237 240 243 245 246 249 250 249 251 252 253 254 255 258 260 259 258 258 260 261 261 259 258 257 258 260 263 263 264 265 268 272 276 281 288 295 300 301 301
232 230 232 234 236 239 242 246 250 249 246 247 250 250 251 252 256 259 258 258 260 261 262 262 261 259 257 255 256 257 259 261 262 265 269 275 281 287 291 294 296 295
233 230 230 232 234 236 233 232 239 243 243 244 246 248 250 251 253 254 254 255 257 258 260 261 262 261 260 259 258 257 257 259 261 263 267 272 278 283 286 288 288 286
232 230 227 227 229 230 228 227 233 240 243 243 243 244 246 248 249 251 253 255 255 255 257 260 262 264 266 266 264 261 259 259 260 263 266 269 272 277 280 282 283 281
231 231 229 227 227 228 229 233 238 241 241 242 241 241 242 243 244 247 252 254 255 256 257 259 260 262 267 268 266 261 258 258 259 261 263 264 267 270 273 275 276 276
230 230 230 230 231 232 234 238 241 241 242 242 241 240 241 242 243 244 247 251 254 255 256 258 258 257 259 259 258 256 256 255 256 259 260 262 263 264 267 269 269 269
230 229 231 233 234 236 238 241 243 245 246 245 243 241 242 243 244 245 245 246 249 252 255 258 258 255 252 252 253 254 257 259 260 262 264 267 269 267 267 268 267 266
232 231 233 236 239 241 243 245 247 247 247 246 245 244 243 243 245 246 246 245 245 249 253 256 257 255 252 251 254 257 260 266 270 270 270 274 277 277 276 275 272 270
Height
11033 11034 11034 11035 11035 11036 11036 11037 11037 11037 11037 11037 11037 11037 11037 11038 11038 11038 11038 11038 11038 11038 11037 11037 11037 11037 11037 11036 11036 11035 11034 11033 11032 11032 11031 11030 11030 11029 11028 11027 11027 11026
11033 11034 11035 11035 11036 11036 11036 11037 11037 11037 11038 11038 11038 11038 11038 11038 11038 11038 11038 11038 11038 11038 11038 11038 11037 11037 11037 11037 11036 11035 11035 11034 11033 11032 11032 11031 11030 11030 11028 11028 11027 11027
11033 11034 11035 11036 11036 11036 11037 11037 11037 11037 11038 11038 11038 11038 11038 11038 11038 11038 11039 11039 11039 11038 11038 11038 11038 11037 11037 11037 11037 11036 11035 11035 11034 11033 11032 11031 11031 11030 11029 11028 11028 11027
11032 11034 11034 11035 11036 11036 11036 11036 11037 11037 11037 11037 11038 11038 11038 11038 11039 11039 11039 11039 11039 11039 11038 11038 11038 11038 11038 11037 11037 11036 11036 11035 11035 11034 11033 11032 11032 11031 11030 11029 11028 11028
11031 11032 11033 11034 11034 11035 11035 11036 11036 11036 11037 11037 11038 11038 11038 11038 11038 11039 11039 11039 11039 11039 11039 11039 11038 11038 11038 11038 11037 11037 11036 11036 11035 11034 11034 11033 11032 11031 11030 11029 11029 11028
11031 11032 11032 11033 11034 11034 11034 11035 11035 11035 11036 11036 11037 11038 11038 11038 11038 11038 11039 11039 11039 11039 11039 11039 11038 11038 11038 11038 11038 11037 11037 11036 11036 11035 11034 11034 11033 11032 11031 11030 11030 11029
11032 11032 11032 11032 11032 11033 11033 11034 11034 11034 11034 11035 11036 11037 11037 11038 11038 11038 11039 11039 11039 11039 11039 11039 11039 11038 11038 11038 11038 11037 11037 11036 11036 11035 11035 11034 11033 11033 11032 11031 11030 11030
11032 11032 11032 11031 11031 11031 11032 11032 11032 11032 11032 11033 11034 11035 11036 11037 11038 11038 11038 11039 11039 11039 11039 11039 11039 11039 11038 11038 11038 11037 11037 11036 11036 11035 11035 11034 11034 11033 11032 11032 11031 11030
11032 11033 11032 11031 11030 11030 11029 11029 11030 11030 11030 11031 11032 11033 11034 11036 11037 11037 11038 11038 11039 11039 11039 11039 11039 11039 11039 11038 11038 11037 11037 11036 11036 11035 11035 11034 11034 11033 11032 11032 11031 11031
11033 11033 11033 11033 11032 11030 11027 11027 11027 11028 11028 11029 11030 11031 11032 11034 11035 11036 11037 11038 11038 11038 11039 11039 11039 11039 11039 11038 11038 11037 11037 11036 11036 11035 11035 11034 11034 11033 11032 11032 11032 11031
11032 11032 11032 11032 11031 11026 11022 11021 11023 11025 11026 11027 11028 11029 11030 11032 11033 11035 11036 11037 11037 11037 11038 11038 11039 11039 11038 11038 11038 11037 11037 11036 11036 11035 11035 11034 11034 11033 11032 11032 11032 11031
11027 11026 11026 11026 11023 11018 11014 11015 11018 11020 11023 11024 11026 11027 11028 11030 11031 11033 11034 11035 11036 11036 11037 11037 11037 11038 11038 11037 11037 11037 11036 11036 11035 11035 11035 11034 11034 11033 11032 11032 11032 11032
11023 11023 11023 11021 11018 11015 11013 11013 11016 11017 11019 11020 11022 11024 11025 11027 11028 11030 11031 11032 11033 11034 11034 11035 11035 11036 11036 11036 11036 11036 11036 11035 11035 11034 11034 11034 11034 11033 11033 11032 11032 11032
11022 11022 11020 11018 11016 11014 11013 11014 11015 11016 11016 11017 11018 11020 11021 11023 11025 11026 11027 11028 11029 11030 11031 11032 11033 11033 11034 11034 11034 11034 11034 11034 11033 11033 11033 11034 11034 11033 11032 11032 11032 11032
11019 11018 11016 11015 11014 11013 11012 11012 11014 11016 11016 11015 11015 11017 11018 11019 11020 11022 11023 11024 11025 11026 11028 11029 11030 11031 11031 11032 11032 11032 11032 11032 11032 11032 11032 11033 11033 11033 11032 11032 11032 11032
11014 11013 11012 11011 11011 11012 11012 11011 11013 11015 11015 11013 11014 11015 11016 11017 11018 11019 11020 11022 11023 11024 11025 11027 11028 11029 11030 11030 11030 11030 11030 11030 11031 11031 11031 11031 11032 11032 11032 11031 11032 11032
11009 11008 11008 11008 11010 11011 11011 11010 11011 11012 11012 11012 11012 11013 11014 11014 11015 11016 11018 11020 11021 11022 11023 11025 11026 11027 11028 11029 11029 11029 11029 11029 11029 11029 11029 11030 11030 11031 11031 11031 11031 11031
11005 11005 11005 11006 11007 11008 11008 11008 11009 11009 11010 11010 11011 11012 11012 11013 11013 11014 11015 11016 11018 11019 11020 11021 11022 11024 11025 11026 11027 11028 11028 11028 11027 11027 11028 11028 11028 11029 11030 11030 11030 11031
11000 11001 11002 11002 11003 11004 11005 11006 11006 11006 11007 11008 11009 11010 11010 11011 11011 11011 11012 11013 11014 11016 11017 11018 11018 11019 11021 11022 11023 11024 11025 11026 11026 11026 11026 11026 11027 11028 11028 11029 11029 11030
10995 10997 10997 10997 10999 11000 11001 11003 11004 11002 11003 11005 11005 11006 11006 11007 11008 11009 11010 11011 11012 11013 11014 11015 11016 11017 11018 11018 11020 11021 11022 11023 11023 11024 11024 11025 11025 11026 11027 11028 11028 11029
10989 10991 10991 10993 10994 10994 10996 10999 11000 10998 10998 11000 11002 11002 11002 11003 11004 11006 11008 11008 11010 11010 11011 11012 11013 11015 11016 11016 11017 11019 11019 11020 11020 11021 11022 11023 11024 11025 11025 11026 11027 11027
10982 10984 10986 10986 10986 10986 10988 10991 10992 10992 10993 10995 10997 10998 10999 11000 11001 11003 11005 11006 11007 11007 11008 11009 11011 11013 11014 11015 11016 11017 11017 11017 11018 11018 11019 11020 11021 11022 11023 11024 11025 11025
10975 10978 10979 10978 10977 10978 10981 10983 10985 10987 10988 10990 10992 10994 10996 10997 10998 11000 11002 11003 11004 11005 11005 11007 11009 11011 11013 11014 11014 11014 11014 11014 11015 11015 11016 11017 11018 11019 11020 11021 11022 11023
10968 10971 10972 10970 10970 10973 10976 10978 10980 10982 10984 10986 10987 10989 10991 10993 10994 10996 10998 10999 11001 11001 11002 11004 11006 11009 11010 11008 11008 11009 11010 11011 11012 11012 11013 11014 11015 11016 11017 11017 11019 11020
10959 10962 10964 10964 10964 10966 10969 10971 10974 10977 10979 10981 10982 10985 10987 10988 10989 10991 10993 10995 10996 10997 10999 11001 11003 11004 11002 11000 11001 11004 11007 11009 11010 11011 11011 11011 11012 11014 11014 11015 11015 11016
10951 10954 10956 10957 10958 10959 10961 10964 10967 10970 10973 10975 10977 10979 10981 10983 10985 10987 10989 10991 10992 10993 10995 10997 10997 10996 10995 10995 10998 11002 11006 11008 11010 11009 11008 11009 11011 11013 11013 11013 11013 11014